Zurück zum Katalog

FENGYUN 1C DEB

AktivPO
NORAD 33601·DEBRIS·🇨🇳 China

Gestartet May 10, 1999 von Taiyuan Satellite Launch Center

Loading…

Nächste Überflüge (nächste 24 Stunden)

TLE

AktuellSource: Space-Track

Epoche: Sep 13, 2026, 07:46 UTC

1 33601U 99025DCJ 26256.32417108  .00001224  00000-0  65110-3 0  9990
2 33601  98.3426  36.7038 0156554  77.9439 283.9228 14.08987759945458

Verfolge FENGYUN 1C DEB in Echtzeit mit AllMySat

Download on the App Store